STARLINK-4567 (53970 NORAD) Tracking and Keplerian Element Data

This shows tracking and keplerian element data for the satellite.

Feedback or suggestion? Click here.




ElementValue
Catalog53970
NameSTARLINK-4567
Epoch Orbit130
Epoch Day324.91667824
Epoch Year2022
RAAN228.1881
Inclination53.2176
Eccentricity0.0001237
Argument of Perigee68.3049
Mean Anonmoly284.2194
Mean Motion15.21799949
Decay Rate-0.01149314
L11 53970U 22125G 22324.91667824 -.01149314 00000+0 -54205-1 0 9993
L22 53970 53.2176 228.1881 0001237 68.3049 284.2194 15.21799949 1303



Live tracking and technical data element details for STARLINK-4567 (NORAD 53970). STARLINK-4567 can be tracked NOW for your location showing map with azimuth and elevation plus other details from your city location.







IsCatalogInMostPopularTable: catalog: 53970, numindb: 3
Update: records affected: 1



GetName: 53970 STARLINK-4567

Hit Count: updated at: Fri, 09 Dec 2022 18:58:24 GMT